Location: Castelbiague
(43.0361°N, 0.9246°E)
Time: 13:50:55
(UTC+00:00)

Cosmos 1707 - Pass Details

Date: 17 June 2021
Orbit: 513 x 530 km, 82.5° (Epoch: 04 August)

Event Time Altitude Azimuth Distance (km) Brightness Sun altitude
Exits shadow 20:39:39 - 189° (S) 2,685 6.0 -9.5°
Rises 20:39:45 0° 189° (S) 2,638 5.9 -9.5°
Reaches altitude 10° 20:41:52 10° 190° (S) 1,758 5.1 -9.8°
Maximum altitude 20:45:44 82° 277° (W) 537 2.8 -10.3°
Drops below altitude 10° 20:49:39 10° 6° (N) 1,782 6.0 -10.8°
Sets 20:51:49 0° 8° (N) 2,678 6.9 -11.0°
